• In Deutschland
  • Länderverzeichnis
  • Für 7 Tage
  • Wassertemperatur
  • Satellitenkarten
  • Wetterkarte
  • Widgets
  • user-avatar
    Anmelden

    Stündliche Wetter Aurich

    Heute, 18 Januar, Donnerstag

    Zeit Temperatur Niederschläge Wind Luftdruck Luftfeuchtigkeit
    00:00 0°C° 0,2 mm 7 m/S 749 mmHg 85%
    01:00 0°C° 0,1 mm 7 m/S 748 mmHg 86%
    02:00 0°C° 0,1 mm 7 m/S 747 mmHg 87%
    03:00 -1°C° 0,1 mm 7 m/S 747 mmHg 88%
    04:00 -1°C° 0,8 mm 7 m/S 745 mmHg 89%
    05:00 -1°C° 0,8 mm 7 m/S 743 mmHg 91%
    06:00 -1°C° 0,8 mm 7 m/S 741 mmHg 92%
    07:00 0°C° 1,9 mm 8 m/S 739 mmHg 93%
    08:00 0°C° 1,9 mm 8 m/S 738 mmHg 93%
    09:00 +1°C° 1,9 mm 9 m/S 736 mmHg 94%
    10:00 +1°C° 0,7 mm 10 m/S 736 mmHg 93%
    11:00 +1°C° 0,7 mm 10 m/S 736 mmHg 93%
    12:00 +2°C° 0,7 mm 10 m/S 737 mmHg 93%
    13:00 +1°C° 0,3 mm 10 m/S 739 mmHg 90%
    14:00 +1°C° 0,3 mm 9 m/S 741 mmHg 88%
    15:00 +1°C° 0,3 mm 8 m/S 743 mmHg 85%
    16:00 0°C° 0,4 mm 8 m/S 744 mmHg 85%
    17:00 0°C° 0,4 mm 7 m/S 746 mmHg 85%
    18:00 +1°C° 0,4 mm 6 m/S 747 mmHg 84%
    19:00 +1°C° 0 mm 6 m/S 747 mmHg 85%
    20:00 0°C° 0 mm 5 m/S 747 mmHg 86%
    21:00 0°C° 0 mm 5 m/S 747 mmHg 86%
    22:00 0°C° 0 mm 5 m/S 748 mmHg 87%
    23:00 0°C° 0 mm 5 m/S 748 mmHg 88%

    Morgen, 19 Januar, Freitag

    Zeit Temperatur Niederschläge Wind Luftdruck Luftfeuchtigkeit
    00:00 -1°C° 0 mm 4 m/S 748 mmHg 88%
    01:00 0°C° 0,2 mm 4 m/S 748 mmHg 89%
    02:00 0°C° 0,2 mm 4 m/S 749 mmHg 89%
    03:00 0°C° 0,2 mm 4 m/S 749 mmHg 90%
    04:00 0°C° 0,2 mm 4 m/S 749 mmHg 90%
    05:00 0°C° 0,2 mm 5 m/S 750 mmHg 90%
    06:00 0°C° 0,2 mm 5 m/S 750 mmHg 90%
    07:00 0°C° 0,4 mm 5 m/S 751 mmHg 89%
    08:00 -1°C° 0,4 mm 6 m/S 751 mmHg 88%
    09:00 +1°C° 0,4 mm 6 m/S 752 mmHg 87%
    10:00 +1°C° 0,2 mm 6 m/S 752 mmHg 85%
    11:00 +2°C° 0,2 mm 7 m/S 752 mmHg 82%
    12:00 +2°C° 0,2 mm 7 m/S 752 mmHg 80%
    13:00 +2°C° 0,3 mm 7 m/S 752 mmHg 81%
    14:00 0°C° 0,3 mm 7 m/S 752 mmHg 81%
    15:00 0°C° 0,3 mm 7 m/S 752 mmHg 82%
    16:00 +1°C° 0,2 mm 6 m/S 752 mmHg 83%
    17:00 -1°C° 0,2 mm 6 m/S 752 mmHg 84%
    18:00 -1°C° 0,2 mm 6 m/S 752 mmHg 85%
    19:00 -1°C° 0,2 mm 6 m/S 752 mmHg 86%
    20:00 -1°C° 0,2 mm 5 m/S 752 mmHg 86%
    21:00 -1°C° 0,2 mm 5 m/S 752 mmHg 87%
    22:00 -2°C° 0,1 mm 6 m/S 752 mmHg 87%
    23:00 -2°C° 0,1 mm 6 m/S 752 mmHg 87%

    übermorgen, 20 Januar, Samstag

    Zeit Temperatur Niederschläge Wind Luftdruck Luftfeuchtigkeit
    00:00 -2°C° 0,1 mm 6 m/S 752 mmHg 87%
    01:00 -2°C° 0,1 mm 6 m/S 752 mmHg 86%
    02:00 -2°C° 0,1 mm 6 m/S 752 mmHg 86%
    03:00 -2°C° 0,1 mm 6 m/S 751 mmHg 85%
    04:00 -2°C° 0,1 mm 6 m/S 751 mmHg 85%
    05:00 -2°C° 0,1 mm 6 m/S 751 mmHg 85%
    06:00 -2°C° 0,1 mm 6 m/S 751 mmHg 86%
    07:00 -2°C° 0,2 mm 6 m/S 751 mmHg 85%
    08:00 -2°C° 0,2 mm 6 m/S 751 mmHg 85%
    09:00 -1°C° 0,2 mm 6 m/S 752 mmHg 85%
    10:00 -1°C° 0,1 mm 6 m/S 752 mmHg 84%
    11:00 0°C° 0,1 mm 7 m/S 752 mmHg 83%
    12:00 0°C° 0,1 mm 7 m/S 752 mmHg 82%
    13:00 0°C° 0,1 mm 7 m/S 752 mmHg 82%
    14:00 0°C° 0,1 mm 7 m/S 752 mmHg 82%
    15:00 0°C° 0,1 mm 7 m/S 753 mmHg 82%
    16:00 -1°C° 0,1 mm 6 m/S 753 mmHg 83%
    17:00 0°C° 0,1 mm 5 m/S 754 mmHg 84%
    18:00 -1°C° 0,1 mm 5 m/S 754 mmHg 85%
    19:00 -1°C° 0,1 mm 4 m/S 755 mmHg 85%
    20:00 -1°C° 0,1 mm 4 m/S 755 mmHg 85%
    21:00 0°C° 0,1 mm 3 m/S 756 mmHg 85%
    22:00 0°C° 0 mm 3 m/S 757 mmHg 85%
    23:00 0°C° 0 mm 3 m/S 757 mmHg 85%

    21 Januar, Sonntag

    Zeit Temperatur Niederschläge Wind Luftdruck Luftfeuchtigkeit
    00:00 0°C° 0 mm 3 m/S 758 mmHg 85%
    01:00 +1°C° 0 mm 2 m/S 758 mmHg 85%
    02:00 -1°C° 0 mm 2 m/S 759 mmHg 85%
    03:00 -1°C° 0 mm 2 m/S 759 mmHg 84%
    04:00 -1°C° 0 mm 2 m/S 760 mmHg 84%
    05:00 +1°C° 0 mm 1 m/S 760 mmHg 84%
    06:00 +1°C° 0 mm 1 m/S 760 mmHg 84%
    07:00 -1°C° 0 mm 2 m/S 761 mmHg 85%
    08:00 -1°C° 0 mm 2 m/S 761 mmHg 86%
    09:00 0°C° 0 mm 3 m/S 761 mmHg 87%
    10:00 0°C° 0 mm 3 m/S 761 mmHg 87%
    11:00 0°C° 0 mm 4 m/S 761 mmHg 87%
    12:00 0°C° 0 mm 4 m/S 761 mmHg 87%
    13:00 0°C° 0 mm 5 m/S 761 mmHg 88%
    14:00 0°C° 0 mm 5 m/S 761 mmHg 89%
    15:00 0°C° 0 mm 5 m/S 760 mmHg 91%
    16:00 -1°C° 0,1 mm 6 m/S 759 mmHg 91%
    17:00 -1°C° 0,1 mm 6 m/S 759 mmHg 91%
    18:00 -1°C° 0,1 mm 6 m/S 758 mmHg 91%
    19:00 -1°C° 0,3 mm 6 m/S 758 mmHg 91%
    20:00 -1°C° 0,3 mm 7 m/S 758 mmHg 90%
    21:00 -1°C° 0,3 mm 7 m/S 758 mmHg 90%
    22:00 -1°C° 0,2 mm 6 m/S 757 mmHg 91%
    23:00 -1°C° 0,2 mm 6 m/S 757 mmHg 92%

    22 Januar, Montag

    Zeit Temperatur Niederschläge Wind Luftdruck Luftfeuchtigkeit
    00:00 0°C° 0,2 mm 5 m/S 757 mmHg 93%
    01:00 0°C° 0 mm 5 m/S 757 mmHg 94%
    02:00 0°C° 0 mm 4 m/S 757 mmHg 95%
    03:00 +1°C° 0 mm 3 m/S 758 mmHg 96%
    04:00 +1°C° 0 mm 3 m/S 758 mmHg 97%
    05:00 +1°C° 0 mm 3 m/S 758 mmHg 97%
    06:00 +2°C° 0 mm 3 m/S 758 mmHg 98%
    07:00 +1°C° 0 mm 4 m/S 759 mmHg 98%
    08:00 +3°C° 0 mm 4 m/S 759 mmHg 98%
    09:00 +3°C° 0 mm 4 m/S 759 mmHg 98%
    10:00 +3°C° 0 mm 4 m/S 759 mmHg 98%
    11:00 +4°C° 0 mm 4 m/S 759 mmHg 98%
    12:00 +4°C° 0 mm 4 m/S 759 mmHg 97%
    13:00 +4°C° 0,6 mm 4 m/S 759 mmHg 97%
    14:00 +4°C° 0,6 mm 4 m/S 758 mmHg 97%
    15:00 +4°C° 0,6 mm 4 m/S 758 mmHg 97%
    16:00 +3°C° 0,9 mm 5 m/S 757 mmHg 97%
    17:00 +5°C° 0,9 mm 5 m/S 757 mmHg 97%
    18:00 +5°C° 0,9 mm 6 m/S 756 mmHg 97%
    19:00 +6°C° 0,7 mm 7 m/S 756 mmHg 96%
    20:00 +6°C° 0,7 mm 8 m/S 756 mmHg 95%
    21:00 +7°C° 0,7 mm 8 m/S 756 mmHg 94%
    22:00 +7°C° 0,1 mm 8 m/S 756 mmHg 93%
    23:00 +7°C° 0,1 mm 8 m/S 756 mmHg 92%

    23 Januar, Dienstag

    Zeit Temperatur Niederschläge Wind Luftdruck Luftfeuchtigkeit
    00:00 +7°C° 0,1 mm 8 m/S 757 mmHg 92%
    01:00 +7°C° 0 mm 8 m/S 757 mmHg 91%
    02:00 +7°C° 0 mm 8 m/S 757 mmHg 91%
    03:00 +7°C° 0 mm 9 m/S 758 mmHg 90%
    04:00 +7°C° 0 mm 9 m/S 758 mmHg 89%
    05:00 +6°C° 0 mm 9 m/S 759 mmHg 88%
    06:00 +6°C° 0 mm 9 m/S 759 mmHg 87%
    07:00 +6°C° 0 mm 9 m/S 759 mmHg 88%
    08:00 +7°C° 0 mm 9 m/S 760 mmHg 88%
    09:00 +7°C° 0 mm 10 m/S 760 mmHg 88%
    10:00 +7°C° 0 mm 9 m/S 761 mmHg 86%
    11:00 +7°C° 0 mm 9 m/S 762 mmHg 83%
    12:00 +8°C° 0 mm 9 m/S 762 mmHg 81%
    13:00 +7°C° 0 mm 8 m/S 763 mmHg 81%
    14:00 +8°C° 0 mm 7 m/S 764 mmHg 82%
    15:00 +8°C° 0 mm 6 m/S 764 mmHg 83%
    16:00 +7°C° 0 mm 6 m/S 765 mmHg 86%
    17:00 +5°C° 0 mm 6 m/S 765 mmHg 89%
    18:00 +5°C° 0 mm 6 m/S 766 mmHg 92%
    19:00 +5°C° 0 mm 6 m/S 766 mmHg 93%
    20:00 +6°C° 0 mm 5 m/S 766 mmHg 94%
    21:00 +5°C° 0 mm 5 m/S 767 mmHg 94%
    22:00 +6°C° 0 mm 5 m/S 767 mmHg 95%
    23:00 +5°C° 0 mm 6 m/S 767 mmHg 96%
    Mehr zeigen